This is the latest recevied weather packets stored in our database for station/object WA6ODQ-13. If no packets are shown the sender has not sent any weather packets the latest 10 day(s).
| Time | Temp. | Humidity | Pressure | Rain* | Wind** | Luminosity | Snow |
|---|---|---|---|---|---|---|---|
| 1777746280 | 16.11° C | 79% | 1010.6 hPa | 0 mm | - | 343 W/m² | - |
| 1777745976 | 15.56° C | 79% | 1010.7 hPa | 0 mm | - | 289 W/m² | - |
| 1777745675 | 16.11° C | 78% | 1010.6 hPa | 0 mm | - | 312 W/m² | - |
| 1777745373 | 16.67° C | 77% | 1010.5 hPa | 0 mm | - | 386 W/m² | - |
| 1777745070 | 16.67° C | 77% | 1010.5 hPa | 0 mm | - | 573 W/m² | - |
| 1777744766 | 16.11° C | 79% | 1010.4 hPa | 0 mm | - | 638 W/m² | - |
| 1777744461 | 15.56° C | 81% | 1010.7 hPa | 0 mm | - | 482 W/m² | - |
| 1777744157 | 15° C | 82% | 1010.5 hPa | 0 mm | - | 457 W/m² | - |
| 1777743854 | 14.44° C | 84% | 1010.5 hPa | 0 mm | - | 201 W/m² | - |
| 1777743551 | 14.44° C | 84% | 1010.8 hPa | 0 mm | - | 166 W/m² | - |
| 1777743248 | 14.44° C | 85% | 1010.6 hPa | 0 mm | - | 151 W/m² | - |
| 1777742946 | 14.44° C | 83% | 1010.5 hPa | 0 mm | - | 150 W/m² | - |
| 1777742643 | 14.44° C | 84% | 1010.6 hPa | 0 mm | - | 292 W/m² | - |
| 1777742339 | 14.44° C | 84% | 1010.6 hPa | 0 mm | - | 345 W/m² | - |
| 1777742035 | 14.44° C | 84% | 1010.6 hPa | 0 mm | - | 251 W/m² | - |
| 1777741732 | 13.89° C | 85% | 1010.9 hPa | 0 mm | - | 248 W/m² | - |
| 1777741428 | 13.89° C | 85% | 1010.9 hPa | 0 mm | - | 223 W/m² | - |
| 1777741124 | 13.89° C | 85% | 1010.7 hPa | 0 mm | - | 208 W/m² | - |
| 1777740821 | 13.89° C | 85% | 1010.7 hPa | 0 mm | - | 173 W/m² | - |
| 1777740518 | 13.89° C | 85% | 1010.5 hPa | 0 mm | - | 174 W/m² | - |
| 1777740215 | 13.89° C | 85% | 1010.4 hPa | 0 mm | - | 158 W/m² | - |
| 1777739912 | 13.89° C | 85% | 1010.4 hPa | 0 mm | - | 148 W/m² | - |
| 1777739608 | 13.89° C | 85% | 1010.4 hPa | 0 mm | - | 142 W/m² | - |
| 1777739306 | 13.89° C | 85% | 1010.4 hPa | 0 mm | - | 130 W/m² | - |
| 1777739002 | 13.33° C | 85% | 1010.3 hPa | 0 mm | - | 116 W/m² | - |
* Rain latest hour (hover to see other rain measurements)
** Current wind speed in m/s (hover to see current wind gust speed)